Location: Burzi?i
(45.0869°N, 16.0577°E)
Time: 11:53:11
(UTC+00:00)

Cosmos 1697 Rocket - Pass Details

Date: 29 October 2020
Orbit: 831 x 845 km, 71.0° (Epoch: 28 November)

Event Time Altitude Azimuth Distance (km) Brightness Sun altitude
Rises 17:05:43 0° 192° (SSW) 3,362 6.1 -14.3°
Reaches altitude 10° 17:08:10 10° 188° (S) 2,433 5.3 -14.7°
Maximum altitude 17:13:38 59° 110° (ESE) 959 2.7 -15.7°
Drops below altitude 10° 17:19:10 10° 33° (NNE) 2,458 4.8 -16.7°
Enters shadow 17:19:39 - 32° (NNE) 2,639 4.9 -16.8°
